Wind_Speed
25 26 26 25 25 24 24 23 22 22 21 21 20 19 19 19 19 18 18 17 17 16 16 15 15 14 13 13 12 11 10 10 9 8 7 6 7 7 7 7 7 7 7 7 7 7 7 7 7 6 6 6 6 6 6 6 6 6 6 6 6 6 6 7 7 7 6 6 8 8 8 9 9 8 8 8 8 8 7 5 5 4 4 4 5
26 27 27 27 27 26 26 25 24 23 23 22 22 21 21 20 20 19 19 18 18 17 16 16 15 14 14 13 12 11 11 10 10 8 7 7 6 7 7 7 7 7 7 7 7 7 7 7 7 7 7 6 6 5 6 6 7 7 7 7 6 7 7 7 7 7 5 5 7 8 7 8 10 9 9 9 8 7 6 5 5 5 5 5 6
25 27 28 28 28 27 27 26 25 24 24 24 24 23 23 22 22 21 21 20 20 19 18 17 16 16 15 14 13 12 11 11 10 9 9 8 7 7 7 8 8 7 8 8 7 7 7 7 8 7 7 7 6 6 6 6 6 7 7 7 7 7 8 8 7 7 6 5 5 6 6 6 7 7 7 7 7 7 6 5 5 6 5 6 7
21 25 28 29 29 29 28 27 27 26 26 26 26 25 25 24 24 24 23 23 22 21 20 19 18 18 17 16 15 14 12 12 11 10 10 10 9 8 8 8 8 8 8 8 8 7 7 8 8 7 7 6 6 6 6 7 7 7 7 7 7 7 8 8 7 7 7 6 5 5 6 6 5 5 5 6 6 6 6 6 6 7 7 8 9
20 22 25 28 30 30 29 29 29 28 28 28 28 27 27 26 26 26 25 25 24 24 23 22 21 20 20 19 17 15 14 13 12 11 11 11 11 10 10 10 9 9 9 9 8 8 8 8 8 8 7 6 6 6 6 7 7 7 7 8 8 8 8 8 8 8 8 8 6 6 6 6 6 5 5 6 6 7 7 8 9 10 11 12 13
23 23 24 26 29 31 31 31 31 31 31 30 29 29 28 28 28 27 27 26 26 25 24 24 23 23 22 20 19 18 16 15 15 14 13 13 12 12 11 11 10 10 10 9 9 9 9 8 9 9 8 7 7 7 7 7 7 7 7 7 8 9 9 9 9 10 10 10 9 8 7 7 8 7 7 7 8 8 8 9 11 12 13 15 17
26 27 25 24 27 29 31 33 33 32 32 31 31 30 29 29 29 29 29 28 27 26 26 26 25 25 24 22 21 20 18 18 17 16 15 15 14 14 13 12 11 11 11 10 11 11 10 10 10 10 10 10 9 9 9 9 9 8 7 7 7 8 9 9 10 11 12 12 12 12 11 10 11 11 10 9 10 10 10 11 14 16 16 17 19
29 29 28 26 26 27 28 31 33 33 33 33 32 31 30 30 30 30 30 29 28 28 28 27 27 26 25 24 23 22 21 20 20 19 18 17 16 15 14 13 12 12 12 12 12 12 12 12 12 12 13 13 13 13 12 12 12 11 10 9 9 9 9 9 10 11 12 13 14 14 15 15 15 15 14 14 13 13 12 13 15 19 20 21 22
32 32 32 30 29 27 26 28 31 33 35 35 34 33 33 31 31 30 29 29 29 28 28 28 27 27 27 26 25 24 23 22 22 21 20 19 18 17 16 15 14 14 13 13 14 14 14 15 15 15 15 15 15 16 15 15 15 15 14 13 12 12 12 12 12 12 12 13 15 15 16 18 18 17 17 17 16 16 16 16 17 20 22 22 24
34 34 35 35 33 30 28 28 30 32 35 36 36 36 35 33 32 31 30 30 29 29 29 29 28 28 28 28 27 25 24 24 24 23 23 22 21 19 18 17 17 16 16 16 16 17 17 17 17 17 17 17 17 17 16 16 16 17 17 16 15 15 15 16 16 15 15 15 16 16 17 18 20 19 19 19 19 18 19 19 20 21 21 21 23
34 36 36 36 35 34 34 33 33 33 34 36 37 37 36 35 34 33 32 31 31 31 30 30 29 30 30 29 28 26 26 26 25 25 24 23 22 21 20 20 19 18 18 18 18 19 19 19 19 19 18 18 17 17 17 17 17 17 17 17 17 16 16 17 17 17 17 17 17 18 18 19 21 21 21 21 21 21 21 21 21 21 20 20 21
33 36 36 34 34 36 37 37 37 36 36 36 37 38 38 37 37 36 35 34 33 33 32 32 31 31 31 30 29 28 27 27 27 26 25 24 23 22 22 21 20 20 20 20 21 21 21 21 21 21 20 19 19 18 18 17 17 17 18 18 18 18 18 17 18 18 18 17 18 19 19 19 20 21 22 21 21 21 21 21 21 20 19 20 20
31 33 33 32 32 35 37 38 39 39 38 38 38 39 40 40 39 39 38 37 35 33 33 33 33 32 32 32 31 30 29 29 28 27 26 25 24 23 22 21 21 21 21 22 22 23 22 22 21 21 21 21 20 20 19 18 18 17 18 18 19 20 20 19 19 19 19 18 18 19 20 19 19 20 22 21 20 21 21 21 20 19 19 19 18
32 32 31 29 30 33 34 35 36 36 36 38 39 40 41 41 41 41 41 40 38 36 35 34 34 34 34 33 33 32 31 30 29 28 27 26 25 24 23 22 22 22 23 23 23 23 23 23 22 22 22 22 21 20 19 18 18 18 18 18 19 20 20 21 21 20 19 19 18 18 20 21 20 20 22 22 21 21 21 21 21 21 20 19 18
29 31 31 29 29 30 30 29 29 30 31 33 36 40 43 44 42 42 42 42 41 40 39 38 36 36 35 34 33 33 32 32 31 29 28 27 26 25 24 24 24 23 23 23 23 23 23 23 23 23 23 22 20 19 18 18 18 18 18 18 19 19 20 21 21 20 19 19 18 18 19 20 21 21 23 24 23 23 22 21 22 23 22 20 20
26 28 30 30 29 30 29 27 25 26 27 28 30 34 40 45 46 43 42 42 42 42 42 41 40 39 37 35 34 34 35 34 32 31 30 29 28 27 26 26 25 25 25 24 24 24 23 23 22 23 23 23 22 20 19 19 19 19 19 19 20 20 21 21 20 20 20 20 19 19 19 20 21 22 23 25 25 25 24 23 24 24 22 21 21
26 25 25 26 27 27 27 24 20 18 19 19 20 23 28 37 44 46 45 43 42 42 42 43 43 42 40 38 37 37 37 35 33 32 31 30 29 28 27 27 27 27 26 25 25 25 24 23 23 23 23 24 24 23 23 22 21 21 20 20 21 21 22 21 21 21 22 21 21 21 21 21 22 23 24 26 27 27 26 25 26 26 23 21 21
29 27 24 23 23 23 23 22 18 14 13 13 14 15 17 21 30 40 45 45 43 42 41 42 43 42 41 40 40 40 39 36 33 32 31 32 32 31 29 29 29 28 27 26 26 25 25 24 24 24 25 25 26 26 26 25 25 24 23 23 23 23 24 23 23 23 24 23 24 24 23 23 23 23 24 26 28 28 27 27 28 27 24 23 23
31 30 28 26 25 24 23 22 19 16 15 14 13 14 14 13 15 22 32 40 42 39 39 40 40 39 40 41 39 38 38 35 33 33 32 33 34 33 32 31 30 29 29 28 27 27 26 26 26 26 27 27 28 28 27 27 27 27 27 26 25 25 26 26 26 26 26 26 27 27 26 26 26 25 26 27 29 30 29 28 28 28 25 24 24
30 30 29 29 30 29 27 26 24 22 21 20 19 18 16 14 13 15 20 28 34 35 36 39 38 37 38 38 38 38 37 35 35 35 35 35 35 33 33 33 32 31 31 30 29 28 28 28 28 28 29 29 29 28 28 28 28 28 28 28 27 27 27 27 28 28 27 28 28 29 30 30 30 29 29 29 31 32 31 30 29 28 26 25 25
31 31 30 30 30 31 31 30 29 28 26 26 25 22 18 17 18 18 17 20 25 28 30 33 34 35 37 37 37 38 38 37 36 35 35 36 35 34 34 34 34 33 33 32 31 30 29 29 30 31 31 30 30 29 29 29 29 29 29 29 28 28 28 28 28 27 27 27 28 29 30 31 32 32 32 32 33 33 33 32 31 30 29 27 26
33 33 32 32 31 30 30 29 28 27 26 26 25 23 20 20 21 21 18 17 19 22 23 24 26 29 33 37 39 40 39 38 35 33 34 36 36 36 36 36 35 36 35 34 33 32 32 32 32 32 33 32 32 32 31 31 30 30 30 30 30 29 28 28 27 26 25 26 27 28 29 30 31 33 34 35 35 35 35 35 34 33 32 31 29
34 34 34 33 32 31 31 30 28 27 27 27 26 24 22 23 24 23 20 20 20 22 23 22 22 23 25 28 32 35 37 37 35 34 35 36 36 36 36 35 36 37 36 36 35 35 35 35 34 34 34 33 34 34 34 33 32 32 31 31 31 31 30 29 28 27 26 27 28 28 29 31 31 33 34 35 36 36 36 36 35 35 34 33 33
35 35 34 34 32 32 31 31 30 29 29 29 29 28 26 26 26 25 22 22 23 23 23 23 24 25 25 25 26 28 29 30 31 31 32 33 33 34 35 35 37 37 37 36 37 37 37 36 35 35 35 34 34 35 34 33 33 33 32 32 31 31 31 30 30 29 29 30 30 31 31 32 33 34 34 35 36 35 35 35 35 35 34 33 33
37 36 35 34 32 31 31 30 30 29 30 31 31 31 29 29 28 27 25 25 25 26 26 26 26 26 27 27 27 28 28 27 27 27 28 29 30 32 33 35 36 37 37 38 38 38 38 37 36 36 36 35 34 34 34 33 33 32 32 32 32 32 32 32 33 33 32 32 32 33 33 34 34 34 34 35 36 35 35 34 34 34 34 34 34
39 38 36 35 33 32 31 31 31 30 30 30 31 31 31 30 29 29 29 29 29 30 30 29 28 28 27 27 27 27 28 29 30 29 28 28 28 30 31 32 32 32 34 35 36 36 36 35 35 35 35 35 34 34 33 33 33 33 33 34 34 34 34 35 36 36 35 35 34 34 34 34 34 34 34 34 35 35 34 34 34 34 35 35 35
41 41 40 38 37 35 34 33 33 32 32 32 32 32 32 32 31 31 31 31 31 32 32 32 31 31 31 30 29 28 28 29 31 32 33 32 31 30 31 30 30 29 30 32 33 34 35 35 35 35 34 34 34 34 35 35 35 35 36 36 37 37 37 37 38 38 38 37 36 36 35 34 34 34 33 34 35 35 34 34 34 34 35 36 36
44 45 44 43 41 40 38 37 36 36 36 35 35 35 34 34 34 34 33 33 33 33 33 33 33 33 33 32 32 32 32 31 31 32 33 34 33 32 32 32 32 32 32 32 33 34 35 36 36 36 36 36 37 37 38 38 39 39 39 40 40 40 40 40 40 41 40 39 38 38 37 36 35 35 34 34 35 35 35 35 35 35 35 35 34
47 47 47 46 45 43 41 40 40 39 40 40 40 40 39 39 38 38 37 37 36 36 36 36 35 35 35 35 35 36 36 35 34 33 34 34 34 34 34 34 34 34 35 35 36 37 37 38 38 39 39 40 40 40 41 41 42 42 43 43 44 44 44 44 43 44 43 42 41 40 40 39 38 37 37 36 36 36 36 36 36 36 36 35 34
49 49 49 48 47 45 44 43 42 42 42 43 43 44 44 44 44 43 42 41 41 40 39 39 38 38 38 38 38 38 38 38 37 37 36 36 36 36 36 37 37 37 37 38 39 40 41 42 42 43 43 43 43 44 44 44 45 45 46 46 47 47 47 46 46 46 46 45 44 44 43 43 42 41 40 40 39 39 38 38 38 38 37 37 36
49 49 48 47 46 45 45 45 45 45 45 45 45 46 46 47 47 47 47 46 45 45 44 43 42 42 41 41 41 41 41 41 40 40 39 40 40 40 40 40 41 41 40 40 40 41 42 43 45 45 45 46 45 46 46 47 47 48 48 48 49 49 48 48 48 47 47 47 46 46 46 45 45 44 43 43 42 42 42 41 41 40 39 38 37
51 51 50 49 49 49 49 50 50 49 49 49 48 47 47 47 48 48 48 48 47 47 47 46 45 45 45 44 44 43 43 43 43 43 43 43 43 43 43 43 43 43 43 43 43 42 43 44 44 45 46 46 46 46 46 47 47 48 49 49 50 50 50 49 49 49 48 48 48 48 47 47 46 46 45 45 45 44 44 43 43 43 42 41 40
54 54 54 54 54 54 55 54 53 52 52 51 51 50 49 48 48 48 49 49 48 48 48 47 47 47 46 46 46 46 46 45 45 45 45 45 45 45 45 45 45 45 45 45 45 45 45 45 45 45 46 46 46 46 46 46 46 47 47 48 49 49 50 50 50 50 49 49 49 49 49 49 48 47 46 46 46 45 45 45 45 44 44 43 43
55 55 56 56 56 56 56 55 54 53 52 51 51 51 51 51 50 50 49 50 50 50 49 49 49 48 48 47 47 47 48 48 48 47 47 47 47 47 47 47 47 46 46 46 47 47 47 46 46 46 46 47 47 47 47 47 47 47 47 48 48 48 49 50 50 51 51 50 50 50 50 50 50 50 49 48 47 47 46 46 46 46 46 46 45
56 56 56 56 56 56 55 55 54 53 52 51 51 51 51 52 52 52 52 52 52 52 52 51 51 51 50 50 50 50 50 50 50 50 50 49 49 50 50 50 50 49 49 49 49 49 49 49 49 48 48 48 48 48 48 48 48 48 49 49 49 49 50 50 51 52 52 52 52 52 52 52 52 52 51 51 50 49 48 48 47 48 48 47 47
56 56 56 56 56 56 56 55 55 54 54 53 52 52 52 52 53 53 54 54 54 54 54 54 54 54 53 53 53 53 53 54 53 53 53 53 53 52 52 53 53 52 52 52 52 52 52 52 52 52 51 51 51 51 51 51 51 51 51 51 51 51 51 52 52 53 53 54 54 54 54 55 55 55 54 53 53 52 51 50 50 50 50 50 49
54 55 55 55 56 56 56 56 56 56 56 55 55 54 54 53 54 54 55 55 55 56 56 57 57 57 57 57 56 56 56 56 56 56 56 56 56 56 56 56 56 56 56 56 55 55 55 56 56 56 56 55 55 54 54 54 54 54 54 54 54 54 54 54 54 54 55 55 55 55 56 56 56 57 57 56 56 56 55 54 53 53 52 53 52
54 54 54 54 55 55 55 56 56 56 57 57 57 56 56 56 55 55 55 56 56 56 57 58 58 59 59 59 59 60 60 60 60 59 59 59 60 60 60 60 60 60 60 60 60 60 60 60 60 60 60 60 60 60 59 59 59 59 58 58 58 58 58 57 57 57 57 57 57 57 57 57 57 58 58 58 58 58 58 58 57 56 55 55 55
54 54 54 54 54 55 55 55 55 55 56 56 57 57 57 57 57 57 57 57 57 58 58 58 59 59 60 60 61 61 62 62 62 63 63 63 63 63 63 64 64 64 65 65 65 65 65 64 64 64 64 64 64 64 64 64 63 63 63 63 63 62 62 62 61 61 60 60 59 59 59 59 59 59 59 60 60 60 60 60 60 60 59 59 58
53 54 55 55 55 55 55 55 55 55 54 55 55 56 56 57 57 57 58 58 59 59 60 60 60 61 61 61 62 63 63 64 64 65 66 66 66 67 67 67 68 68 68 68 68 68 68 68 68 68 68 68 67 67 67 67 67 67 67 67 67 66 66 66 65 65 64 64 63 62 62 62 62 62 62 62 62 61 61 61 61 61 62 61 61
51 52 52 53 54 54 55 55 55 55 55 54 54 54 55 55 56 56 57 58 59 60 60 61 62 62 62 63 64 64 65 66 67 67 68 69 69 69 70 70 70 71 71 71 71 71 71 71 71 71 71 71 71 71 71 70 70 70 70 70 70 69 69 69 69 69 68 68 67 66 66 65 65 65 64 64 64 64 64 63 63 63 63 63 63
51 51 51 51 51 52 53 53 54 55 55 55 54 54 54 55 55 55 56 57 58 59 60 60 61 62 63 63 64 65 66 67 67 68 69 70 71 71 72 72 72 73 73 73 73 74 74 74 73 73 74 74 74 74 74 74 74 73 73 73 73 72 72 72 71 71 71 71 71 70 70 69 68 68 67 67 67 67 67 66 66 66 66 65 65
53 53 53 52 52 52 52 53 53 54 55 55 55 54 54 55 55 55 56 56 57 57 58 59 60 61 62 62 63 64 65 66 67 67 68 69 70 71 72 72 73 74 74 74 75 75 76 76 76 76 76 76 76 76 76 76 76 76 76 76 76 76 75 75 75 74 74 74 73 73 73 73 72 71 71 70 70 70 70 69 69 69 69 68 68
55 55 55 55 55 54 54 54 54 54 55 55 55 55 55 55 55 55 55 56 56 57 57 58 58 59 60 61 61 62 64 65 65 66 67 68 68 69 70 71 72 73 73 74 75 75 76 76 77 77 78 78 78 79 79 79 79 78 78 79 79 79 79 79 78 78 78 77 77 76 76 76 75 75 75 74 74 73 73 72 72 72 72 72 71
57 57 57 57 57 57 57 57 56 56 56 56 56 56 56 55 55 55 55 56 56 56 57 57 57 58 59 59 60 61 62 63 64 65 66 67 68 69 69 70 71 72 73 74 74 75 76 76 77 77 78 78 79 79 80 80 80 81 81 81 81 82 82 82 82 82 82 81 80 80 79 79 79 78 78 78 78 77 77 76 76 76 75 75 75
59 58 58 58 58 58 59 59 59 59 59 59 59 59 58 58 58 57 57 57 57 56 56 57 57 57 58 58 58 59 60 61 62 63 64 65 66 67 68 69 70 71 72 73 74 75 76 76 77 77 78 78 79 79 80 81 81 82 82 83 83 84 84 84 85 85 85 85 84 84 83 82 82 81 81 81 81 81 80 80 80 79 79 79 79
59 59 59 59 59 59 60 60 60 60 60 61 61 61 61 61 60 60 60 60 59 58 57 57 57 57 57 57 58 58 58 59 60 60 61 62 63 64 65 66 67 68 69 71 72 73 75 76 76 77 78 79 79 80 81 81 82 83 83 84 85 85 86 86 87 87 88 88 88 87 86 85 85 84 84 84 84 84 84 84 84 84 83 83 82
57 58 58 59 59 59 59 60 60 60 60 60 61 61 61 61 61 60 60 60 60 59 59 58 58 57 57 57 58 58 58 59 59 60 60 61 61 62 62 63 64 65 66 67 69 70 71 72 73 74 75 77 78 79 80 81 82 83 84 85 86 87 88 88 89 89 90 90 91 90 90 89 88 88 87 87 86 86 86 86 86 87 87 86 86
53 54 55 55 56 57 57 57 58 58 58 58 58 58 58 58 57 58 58 59 59 59 58 58 57 57 57 57 57 57 58 58 59 59 60 60 60 61 62 62 63 64 64 65 66 67 68 68 69 70 71 72 73 74 76 77 79 80 82 83 85 87 88 90 91 91 92 93 93 93 93 92 92 91 91 91 90 90 89 89 89 89 89 89 89
48 49 50 51 52 53 53 54 55 55 55 55 55 55 54 54 53 54 54 55 56 56 56 56 56 56 56 56 57 57 58 58 59 59 60 60 61 61 62 62 63 63 64 65 66 66 67 67 68 68 69 69 69 70 71 72 73 74 75 77 79 81 84 86 88 90 92 93 93 94 94 95 95 94 94 94 94 93 93 92 92 92 92 91 91
48 48 48 47 47 48 49 50 50 51 51 51 51 51 51 51 51 51 52 52 53 54 54 55 55 56 56 57 57 57 58 58 58 59 59 59 59 60 60 61 61 62 63 64 65 65 66 67 67 68 68 68 68 68 69 69 70 71 72 73 75 76 78 81 83 85 87 89 90 91 92 94 94 95 95 95 96 96 95 95 95 94 93 93 93
Wind_Direction
214 214 215 216 216 215 213 212 211 212 213 214 215 216 216 218 218 220 221 222 224 226 228 230 231 234 238 241 245 249 255 260 264 267 271 272 272 273 274 274 272 270 272 273 270 266 262 257 255 256 255 251 248 248 251 253 257 261 265 268 272 275 279 282 289 293 284 275 276 276 274 275 275 274 273 271 265 260 254 242 235 237 249 275 299
216 216 216 217 216 216 215 213 213 213 213 215 217 217 218 219 219 220 221 222 223 226 229 231 232 235 239 242 244 248 252 257 262 265 268 267 265 266 269 271 274 276 276 278 277 277 276 272 267 264 261 258 254 252 254 256 257 257 258 261 263 266 269 273 278 285 284 271 272 278 277 273 275 275 272 269 263 252 239 224 224 237 252 274 294
219 219 218 219 219 218 217 216 215 215 215 217 218 218 219 220 220 221 222 222 223 225 227 230 234 236 240 243 245 248 252 257 263 268 271 271 267 265 266 268 272 276 279 283 287 289 289 287 282 276 272 268 265 262 261 260 259 258 258 258 260 261 262 265 267 273 278 269 258 268 274 270 273 276 271 266 258 246 236 229 233 246 260 276 290
226 225 223 222 221 220 219 219 218 218 218 219 219 220 220 220 221 222 223 223 223 224 225 228 232 236 239 243 245 248 253 258 264 269 273 275 274 270 266 265 267 271 275 282 288 291 293 292 292 290 287 284 278 275 273 272 270 268 266 265 267 267 268 271 273 272 276 276 262 258 264 264 263 263 260 259 258 255 257 264 267 271 280 289 295
229 231 229 227 225 224 222 221 221 220 220 221 221 221 221 221 223 224 224 225 225 225 225 227 229 232 236 239 242 245 249 253 258 262 268 273 275 273 268 265 265 266 269 273 278 281 284 286 290 293 295 295 291 288 286 283 281 280 277 274 272 273 274 278 283 283 283 285 280 265 258 259 257 248 238 244 259 269 277 285 289 291 298 303 306
229 231 232 229 227 226 225 224 223 223 222 223 223 224 223 223 224 225 226 227 227 227 228 229 230 232 234 236 238 241 243 247 251 253 258 263 267 269 268 264 262 262 264 266 268 270 271 274 278 284 288 292 293 293 292 292 292 292 293 289 282 279 277 276 278 281 284 286 285 277 265 259 258 257 249 245 256 270 280 287 291 294 301 305 308
229 230 232 232 230 228 227 227 227 227 226 226 227 227 227 226 226 227 228 228 229 229 230 230 232 233 234 235 236 238 239 242 245 247 250 254 259 262 264 263 262 260 259 260 262 263 263 263 265 270 276 279 280 281 283 285 287 288 292 295 291 286 283 279 275 274 276 278 280 280 277 270 265 264 265 262 262 267 274 281 287 292 297 301 302
232 232 233 234 234 232 230 230 231 231 230 230 230 230 230 229 229 229 230 230 231 232 232 233 234 235 236 236 236 236 237 238 241 243 246 249 253 257 260 261 260 258 257 257 258 259 260 260 261 262 265 268 270 270 271 274 277 279 280 282 284 284 284 283 280 277 275 275 276 278 279 277 274 271 270 272 272 273 276 279 282 287 293 297 299
236 234 234 234 234 234 233 233 233 233 233 232 231 231 231 230 230 230 231 232 233 234 235 235 235 236 237 238 238 237 237 238 239 241 243 245 248 252 255 257 257 257 256 256 256 257 258 258 258 258 260 262 264 266 268 270 274 277 279 280 281 283 284 284 284 284 283 282 282 283 282 282 281 281 280 279 280 280 281 282 282 284 288 292 294
239 238 238 237 236 235 235 235 234 233 233 234 233 233 233 232 231 231 230 231 232 233 235 237 237 237 237 238 238 238 238 239 240 241 243 245 247 249 250 252 254 255 255 255 256 257 258 259 260 260 260 261 264 268 271 274 277 281 285 287 287 287 287 287 287 286 286 285 285 285 285 285 285 286 287 286 287 287 286 285 285 286 288 289 289
240 240 241 240 238 238 238 237 236 234 232 233 234 235 235 235 235 233 231 230 230 230 231 234 236 237 237 237 237 236 236 238 240 242 244 246 247 250 252 253 254 255 257 257 258 258 260 262 263 264 265 266 270 273 277 281 284 288 291 293 293 291 288 287 286 284 282 281 281 281 281 282 284 285 286 287 288 289 288 287 287 287 287 286 286
239 240 242 242 241 242 241 240 239 238 235 232 232 233 234 236 237 237 236 233 231 230 229 230 232 235 237 238 236 235 235 236 238 240 242 245 247 250 253 256 258 259 260 261 262 263 264 265 268 271 273 275 277 278 281 285 289 293 295 296 295 292 290 288 287 286 285 284 284 284 284 284 286 287 287 288 288 288 286 285 286 285 284 283 284
241 241 241 241 241 243 244 243 242 242 239 236 235 233 232 232 233 236 238 237 236 235 233 232 232 233 236 238 238 237 235 235 236 237 239 242 245 247 251 254 257 259 261 263 266 268 270 272 274 276 278 279 281 283 287 291 293 294 293 292 291 290 290 289 287 287 289 290 291 292 291 290 290 289 288 288 287 286 285 283 282 281 278 278 281
242 242 241 240 240 242 244 243 243 245 245 242 240 239 236 232 230 232 235 236 237 237 236 236 235 235 235 237 239 240 240 239 238 238 239 241 244 246 248 252 254 257 259 262 266 270 273 275 277 277 278 279 282 286 289 289 288 285 284 284 284 286 286 286 285 287 289 291 292 293 293 293 292 290 289 287 286 284 283 284 283 281 278 277 278
242 243 243 242 242 244 245 244 242 244 247 248 246 244 241 238 236 233 232 232 233 234 235 236 236 237 237 238 240 242 244 243 243 242 241 242 244 246 248 251 253 255 258 261 263 266 269 271 274 275 276 277 278 280 281 280 279 278 279 279 279 281 282 282 284 288 291 291 290 289 289 289 289 289 288 288 287 286 286 286 285 283 284 284 282
246 244 244 244 244 246 248 246 242 239 241 246 248 246 243 241 240 238 235 233 232 232 234 235 236 237 238 239 241 243 244 245 245 245 244 244 245 246 248 251 253 255 257 259 261 263 265 267 270 272 274 274 274 273 271 271 272 274 275 277 279 281 282 283 287 290 289 289 289 287 285 284 284 284 284 285 286 287 288 289 286 285 287 288 285
248 244 243 243 242 242 241 239 234 228 229 238 246 247 245 242 240 240 239 237 235 234 235 236 237 237 238 238 240 242 244 244 246 247 248 248 248 248 249 252 254 256 257 258 260 262 263 264 265 267 269 270 271 271 270 269 269 270 272 274 277 279 281 284 288 287 285 285 285 283 282 281 281 282 283 284 285 285 287 287 286 288 290 290 287
244 241 241 242 240 235 233 232 230 226 232 248 255 252 250 247 243 241 240 239 239 239 238 238 237 237 237 237 238 241 243 244 247 250 253 254 253 252 251 252 253 254 256 257 258 259 259 260 261 263 265 267 269 271 272 273 273 274 275 275 277 279 280 282 282 281 281 281 281 280 280 280 280 281 283 285 286 287 287 287 287 290 292 293 292
244 243 242 243 244 242 240 240 239 234 234 247 257 255 253 253 254 250 243 238 238 240 241 239 238 237 238 237 238 240 243 244 246 248 250 251 251 251 252 252 253 254 254 255 256 256 257 258 260 261 263 265 267 270 273 275 277 278 279 278 279 280 281 282 281 280 280 281 281 281 282 282 282 282 283 284 286 287 288 289 289 291 293 293 292
247 249 248 247 247 248 249 251 252 251 248 251 258 263 265 266 268 265 251 238 236 238 240 240 239 239 239 238 237 238 240 240 241 242 243 245 246 247 249 251 251 252 253 254 256 257 258 259 260 261 262 263 266 268 271 274 277 278 280 280 280 280 281 282 282 282 283 283 284 285 285 286 286 285 284 283 284 285 286 287 287 287 288 287 285
249 252 253 251 248 249 253 256 258 259 259 259 258 258 259 259 257 255 250 239 235 236 239 240 240 239 239 239 240 240 239 239 238 238 240 243 245 247 249 250 251 252 253 254 256 258 260 261 262 263 263 263 264 266 268 271 273 276 277 278 278 278 278 278 279 282 283 283 283 284 285 286 288 288 287 285 284 284 284 284 283 283 283 282 281
251 252 252 251 249 248 251 253 254 255 255 255 255 250 245 246 249 251 251 249 245 244 245 243 241 240 240 240 241 241 242 244 244 242 241 242 245 248 250 252 253 254 254 254 255 256 258 261 263 263 263 262 262 263 266 268 270 272 273 274 275 275 275 275 277 280 282 282 282 283 284 285 287 288 289 288 286 284 283 283 282 281 281 281 281
252 252 251 250 249 247 246 246 246 248 249 249 250 247 242 242 249 254 255 255 255 253 249 245 243 242 241 239 238 239 241 244 245 245 244 244 244 246 249 252 253 255 256 256 256 257 257 259 262 263 263 262 262 262 265 267 269 270 271 272 274 275 276 277 278 279 281 281 282 282 283 284 286 288 289 289 288 286 283 282 282 281 281 283 284
251 251 250 250 248 247 245 244 243 244 245 246 247 247 243 243 248 252 253 254 256 254 251 249 249 250 250 249 249 249 247 244 242 242 246 249 249 248 249 251 252 253 254 255 256 257 258 260 261 262 263 263 263 264 265 267 268 270 271 273 274 275 277 278 279 278 278 279 279 281 282 284 286 288 288 289 288 287 285 283 282 283 283 284 286
248 249 249 249 249 247 246 246 246 244 244 245 246 246 245 244 244 244 245 249 253 254 254 256 257 259 261 260 260 260 258 255 250 247 249 253 254 253 252 253 253 253 254 254 254 255 257 258 259 260 261 262 263 265 267 268 269 271 272 274 275 275 276 276 277 276 276 276 277 278 280 283 285 287 288 289 288 287 285 283 282 283 283 285 286
246 246 246 245 246 247 247 247 249 249 248 248 249 249 249 247 245 242 241 242 245 248 250 251 253 256 259 260 260 259 257 256 254 253 253 254 255 255 255 256 255 253 251 251 252 253 254 255 256 257 258 260 262 264 266 268 269 271 272 273 274 274 275 276 276 276 276 276 276 277 278 281 283 285 288 289 288 286 285 284 283 283 284 285 287
245 245 245 244 242 243 244 245 247 249 250 251 252 253 254 253 251 249 246 243 243 245 247 247 248 249 252 254 257 258 256 253 251 251 252 253 253 254 256 257 256 253 250 249 250 250 251 251 252 253 254 256 259 261 263 265 267 268 269 270 272 273 274 275 276 277 277 277 277 276 276 277 280 283 286 288 287 286 285 284 284 284 284 285 287
246 244 244 245 244 243 243 243 244 246 248 250 252 253 255 256 256 255 254 252 249 248 248 249 249 250 250 251 252 253 254 253 251 249 249 250 251 252 254 255 256 256 255 253 252 251 251 250 250 250 252 253 255 257 259 261 263 265 267 268 269 270 272 273 275 276 277 277 277 276 276 276 277 279 282 284 285 285 285 285 285 285 285 285 287
245 243 242 243 243 243 243 244 245 246 247 249 251 253 254 255 256 257 257 257 256 254 253 253 253 253 253 253 253 253 253 253 253 252 250 250 250 251 252 253 253 253 253 253 253 253 252 252 251 251 252 253 255 256 258 259 261 263 264 266 267 268 269 271 272 274 275 276 276 276 276 276 276 277 278 279 280 281 282 283 284 285 285 285 287
243 242 241 240 240 241 243 245 247 248 249 250 251 253 254 255 255 256 257 258 258 258 257 257 257 256 255 255 255 255 255 255 254 254 254 253 252 251 251 251 251 251 250 250 250 251 252 253 253 252 252 253 254 255 257 259 260 262 263 265 266 267 268 270 270 271 273 274 274 274 274 275 276 276 276 277 277 278 279 281 282 283 284 285 286
246 245 243 241 242 243 246 248 250 252 253 253 252 252 253 254 254 255 256 256 257 258 259 259 258 258 258 257 257 257 257 258 257 256 255 255 255 254 253 253 253 253 252 251 251 251 252 253 254 254 254 254 255 256 257 259 260 262 264 265 266 267 269 270 270 271 271 271 272 272 272 273 274 274 274 275 276 277 277 278 280 281 282 283 284
251 251 251 250 251 252 254 255 255 256 256 256 255 254 253 253 253 254 254 255 256 257 258 258 258 258 258 258 258 258 258 258 259 258 258 257 257 257 256 256 256 256 256 256 255 255 254 255 255 256 257 257 258 258 259 260 261 262 264 265 266 267 269 270 271 272 272 272 272 272 272 272 272 272 273 273 274 275 276 276 277 278 279 280 281
251 253 254 255 255 257 258 258 258 257 257 256 255 255 254 253 252 252 253 254 254 255 256 256 257 257 257 258 258 259 259 258 258 259 259 259 259 259 259 259 259 258 258 259 259 258 258 257 257 257 258 259 259 260 260 260 261 262 263 264 265 266 268 269 270 271 272 273 273 273 273 273 273 273 272 272 272 272 273 274 275 276 276 277 278
251 252 253 254 255 255 256 257 257 257 256 255 254 254 253 253 252 252 251 252 253 254 255 255 256 256 257 257 257 258 259 259 259 258 258 259 260 260 260 261 261 260 260 260 260 260 260 259 259 259 259 260 260 261 261 262 262 262 262 263 264 264 265 267 268 270 271 272 272 273 274 274 274 274 273 273 272 272 271 272 273 274 275 275 275
253 253 254 254 254 254 255 255 256 256 256 256 254 253 252 252 252 252 252 251 252 252 253 254 255 255 256 257 257 258 258 259 260 260 259 259 259 259 260 260 260 261 261 261 261 262 262 262 261 261 261 261 261 262 262 263 263 263 263 264 264 265 265 265 266 267 268 269 270 271 272 273 274 274 274 274 273 273 272 272 272 272 273 273 274
253 254 254 254 255 255 255 256 256 256 256 256 255 255 254 253 252 251 251 252 252 252 253 253 253 254 254 255 257 258 258 259 259 260 260 260 260 260 260 260 260 260 261 261 261 262 263 264 264 264 263 263 263 263 264 264 265 265 265 265 265 265 265 266 266 266 267 267 268 269 269 271 272 273 273 274 274 274 273 273 272 272 272 273 273
253 253 254 254 255 255 256 256 256 256 256 256 256 256 256 255 255 254 253 253 253 253 253 254 254 254 254 254 255 256 257 258 259 259 260 260 261 261 261 262 262 262 262 262 262 262 263 264 265 266 267 266 266 265 265 265 265 266 266 266 266 266 266 266 266 266 266 267 267 267 268 268 269 270 271 272 273 273 273 273 273 272 272 272 272
253 253 254 254 255 255 256 256 257 257 257 258 258 257 257 257 257 257 257 256 255 255 254 254 255 255 255 255 255 256 257 257 258 258 259 259 260 260 261 262 263 263 264 264 264 264 264 265 265 266 267 268 268 268 268 267 267 267 267 267 267 267 266 266 266 266 266 266 266 267 267 267 268 268 268 269 270 271 272 272 272 272 272 272 272
251 252 253 254 254 255 256 256 257 257 257 258 258 258 258 258 258 258 258 258 258 258 257 256 256 256 256 256 256 257 257 258 258 259 259 259 259 260 260 261 262 263 264 264 265 266 266 266 266 266 266 267 267 267 268 268 269 269 269 268 268 268 267 267 267 266 266 266 266 266 267 267 267 268 268 268 268 268 269 270 271 271 271 271 271
249 250 251 252 253 254 255 256 257 257 257 257 258 258 258 258 259 259 259 258 258 258 258 258 258 258 257 256 256 256 257 257 258 258 259 259 259 260 260 261 261 262 263 264 264 265 265 266 267 267 267 267 267 267 267 267 268 268 269 269 269 269 268 268 267 267 267 266 266 266 266 266 266 266 267 267 267 268 268 268 268 269 270 270 271
249 250 250 251 252 253 255 256 257 257 258 258 258 258 258 258 259 259 259 259 259 259 259 259 259 259 258 258 258 257 257 257 257 257 258 258 259 259 260 260 260 261 262 262 263 264 264 265 265 266 267 267 268 268 268 268 268 268 268 268 268 268 268 268 268 268 267 267 266 266 266 265 265 265 265 266 266 266 267 267 267 267 268 268 269
250 250 251 251 252 253 254 255 257 258 258 259 259 259 259 259 259 259 259 259 259 259 259 259 259 259 259 259 259 259 258 258 257 257 258 258 259 259 259 259 260 260 260 261 261 262 263 263 264 264 265 265 266 267 267 268 269 269 269 269 268 268 268 268 267 267 267 267 267 267 266 266 265 265 265 265 265 266 266 266 266 266 267 267 267
251 251 252 253 254 255 255 256 257 258 259 259 260 260 260 260 260 260 260 259 259 259 259 259 259 259 259 259 259 259 259 259 259 258 258 258 259 259 259 260 260 260 260 260 260 260 261 261 262 263 263 264 265 265 265 266 266 267 268 268 268 268 268 268 268 267 267 267 267 267 267 267 266 266 266 265 265 265 265 265 266 266 266 266 266
253 253 253 254 255 256 257 257 258 258 259 260 261 261 261 261 261 261 261 261 260 260 259 259 258 258 258 258 258 259 260 260 260 260 259 259 259 259 260 260 260 261 261 261 261 261 261 261 261 261 262 263 263 264 265 265 266 266 266 267 267 267 267 267 267 267 267 266 266 266 266 266 266 266 266 266 266 266 265 265 265 265 265 265 265
257 256 255 255 256 256 257 258 258 259 260 261 262 263 264 264 264 264 263 263 262 262 261 261 260 259 259 258 258 258 259 260 260 260 261 260 260 260 261 261 261 261 261 262 262 262 262 262 262 262 262 262 262 263 264 264 265 266 266 267 267 267 267 267 267 266 266 266 266 266 266 266 266 266 266 266 266 266 266 266 265 265 265 265 265
259 259 258 258 258 258 258 258 259 259 260 261 262 263 265 265 266 265 265 264 264 264 263 263 263 262 261 261 260 260 260 260 260 261 261 261 261 262 262 262 262 262 262 262 262 262 262 262 262 262 262 262 262 262 263 263 264 264 265 266 267 267 268 268 268 267 267 266 266 266 265 265 265 265 265 265 265 266 266 266 266 265 265 265 264
259 260 260 260 260 260 260 260 260 260 261 262 262 263 264 265 265 265 264 263 263 263 264 264 264 264 263 263 263 262 262 262 262 262 262 262 263 263 263 264 264 264 264 264 264 264 263 263 263 263 262 262 262 262 262 262 262 263 264 264 265 266 267 267 267 267 267 267 266 266 265 265 265 265 265 265 265 265 265 265 266 265 265 265 265
258 259 259 260 260 261 261 261 262 262 262 262 263 263 263 264 263 263 262 261 261 262 262 263 263 263 264 264 264 264 264 264 264 264 265 265 265 265 265 265 266 266 266 266 266 266 265 265 265 264 264 263 263 262 262 262 262 262 262 262 263 264 265 265 266 266 266 266 266 266 265 265 265 265 265 265 265 265 265 265 266 266 265 265 265
257 258 258 259 260 260 261 261 262 262 262 262 262 262 262 261 261 260 260 260 260 260 261 261 262 263 263 263 264 264 265 265 266 266 266 266 267 267 267 267 268 268 268 268 268 268 268 268 268 267 267 266 266 265 264 264 263 263 262 262 262 262 263 263 264 264 265 265 265 265 265 264 264 264 264 265 265 265 266 266 266 266 266 266 266
255 256 257 258 259 259 260 260 260 261 261 261 261 261 260 260 260 259 259 259 259 260 260 261 262 262 263 263 264 264 265 265 266 266 267 267 268 268 269 269 269 269 269 270 270 270 270 270 270 270 270 269 269 269 268 268 267 267 266 265 264 264 263 263 263 263 263 263 263 264 264 264 264 264 264 264 265 265 266 266 267 267 267 267 267
253 254 255 256 257 259 259 260 260 260 260 260 260 260 259 259 259 259 259 259 259 260 260 261 262 262 263 264 264 265 265 266 266 267 268 268 268 269 269 269 269 270 270 270 270 271 271 271 271 271 271 271 271 271 271 271 271 270 270 269 269 268 267 266 266 265 265 264 264 263 263 264 264 264 264 264 264 265 266 266 267 268 268 268 268
Height
5941 5943 5944 5945 5946 5947 5948 5950 5951 5952 5953 5954 5955 5957 5958 5959 5960 5961 5962 5963 5963 5964 5964 5965 5966 5967 5968 5969 5969 5970 5970 5971 5971 5971 5971 5971 5972 5972 5972 5972 5972 5972 5972 5972 5972 5972 5972 5972 5972 5972 5973 5973 5973 5973 5974 5974 5974 5975 5975 5975 5976 5976 5976 5976 5976 5976 5976 5976 5976 5976 5976 5976 5975 5975 5975 5975 5974 5974 5974 5974 5973 5973 5973 5973 5972
5939 5940 5941 5943 5944 5945 5946 5947 5948 5950 5951 5952 5953 5954 5956 5957 5958 5959 5960 5961 5961 5962 5963 5964 5964 5965 5966 5967 5968 5968 5969 5969 5970 5970 5970 5970 5970 5970 5971 5971 5971 5971 5971 5971 5971 5971 5972 5972 5972 5972 5972 5972 5972 5972 5973 5973 5973 5973 5974 5974 5974 5974 5974 5974 5974 5974 5974 5974 5974 5974 5974 5974 5974 5974 5974 5973 5973 5972 5972 5972 5972 5972 5972 5971 5971
5937 5938 5939 5940 5942 5943 5944 5945 5947 5948 5949 5950 5951 5952 5953 5955 5956 5956 5957 5958 5959 5960 5961 5962 5963 5964 5964 5965 5966 5967 5968 5968 5969 5969 5969 5969 5969 5969 5969 5970 5970 5970 5970 5971 5971 5971 5971 5971 5972 5972 5972 5972 5971 5971 5971 5972 5972 5972 5972 5972 5973 5973 5973 5973 5973 5972 5972 5972 5972 5972 5972 5972 5972 5972 5972 5972 5972 5972 5971 5971 5971 5971 5970 5970 5969
5935 5936 5937 5938 5939 5941 5942 5943 5945 5946 5947 5948 5949 5950 5951 5953 5953 5954 5955 5956 5957 5958 5959 5960 5961 5962 5962 5963 5964 5965 5966 5967 5967 5968 5968 5968 5968 5968 5968 5969 5969 5969 5970 5970 5970 5971 5971 5971 5971 5971 5971 5971 5971 5971 5970 5971 5971 5971 5972 5972 5972 5972 5972 5972 5972 5972 5971 5971 5971 5971 5971 5971 5971 5971 5971 5972 5972 5972 5972 5971 5971 5970 5970 5970 5969
5933 5933 5934 5936 5937 5939 5940 5941 5943 5944 5945 5946 5947 5948 5949 5950 5951 5952 5953 5954 5955 5956 5957 5958 5958 5959 5960 5961 5962 5963 5964 5965 5965 5966 5966 5967 5967 5967 5967 5967 5968 5968 5969 5969 5969 5970 5970 5970 5970 5970 5970 5971 5970 5970 5970 5970 5970 5970 5971 5971 5972 5972 5972 5972 5972 5972 5972 5971 5971 5971 5970 5970 5970 5970 5970 5971 5971 5971 5971 5971 5971 5970 5970 5969 5968
5930 5930 5931 5933 5934 5936 5937 5939 5940 5941 5942 5944 5945 5946 5947 5949 5949 5950 5951 5952 5953 5954 5955 5956 5957 5957 5958 5959 5960 5961 5962 5963 5963 5964 5964 5965 5965 5965 5966 5966 5967 5967 5967 5968 5968 5968 5969 5969 5969 5969 5969 5970 5970 5969 5969 5969 5969 5970 5970 5970 5971 5971 5971 5971 5972 5971 5971 5971 5971 5970 5970 5970 5969 5969 5969 5969 5969 5970 5970 5970 5969 5969 5969 5968 5967
5928 5929 5929 5930 5931 5933 5934 5936 5938 5939 5941 5942 5944 5945 5946 5947 5948 5948 5949 5950 5951 5952 5953 5954 5955 5955 5956 5957 5958 5959 5960 5960 5961 5961 5962 5962 5963 5963 5964 5965 5965 5965 5966 5966 5966 5967 5967 5967 5968 5968 5968 5968 5968 5968 5968 5968 5968 5968 5969 5969 5969 5970 5970 5970 5970 5970 5970 5970 5969 5969 5969 5969 5969 5968 5968 5968 5968 5968 5968 5968 5967 5967 5967 5966 5965
5926 5927 5927 5929 5929 5931 5932 5934 5936 5937 5939 5940 5941 5942 5943 5944 5945 5946 5947 5948 5950 5950 5951 5952 5953 5954 5955 5955 5956 5956 5957 5958 5958 5959 5960 5960 5961 5961 5962 5963 5963 5963 5964 5964 5964 5965 5965 5965 5966 5966 5966 5966 5966 5966 5966 5967 5967 5967 5967 5968 5968 5968 5968 5968 5968 5968 5968 5968 5968 5968 5968 5967 5967 5967 5967 5967 5967 5966 5966 5966 5965 5964 5963 5963 5962
5924 5924 5924 5925 5926 5928 5930 5931 5933 5934 5935 5937 5938 5939 5940 5941 5942 5943 5945 5946 5947 5949 5949 5950 5951 5952 5953 5953 5953 5954 5955 5955 5956 5956 5957 5958 5959 5959 5960 5960 5961 5961 5962 5962 5962 5962 5963 5963 5963 5964 5964 5964 5964 5964 5965 5965 5965 5965 5966 5966 5967 5967 5966 5966 5967 5967 5967 5967 5967 5967 5966 5966 5965 5965 5965 5965 5965 5965 5964 5964 5963 5962 5961 5960 5958
5922 5921 5921 5922 5923 5925 5927 5928 5929 5930 5932 5934 5935 5936 5937 5938 5939 5940 5941 5942 5944 5945 5947 5948 5949 5950 5950 5950 5951 5952 5953 5953 5953 5954 5955 5956 5956 5957 5958 5958 5959 5959 5960 5960 5960 5960 5961 5961 5961 5961 5962 5962 5962 5963 5963 5964 5964 5964 5965 5965 5965 5965 5965 5965 5965 5965 5965 5965 5965 5965 5965 5964 5963 5963 5964 5963 5963 5963 5962 5961 5961 5960 5959 5958 5956
5917 5917 5917 5919 5921 5922 5923 5923 5924 5926 5928 5930 5932 5934 5935 5936 5937 5938 5938 5938 5939 5940 5942 5944 5946 5947 5947 5948 5948 5949 5949 5950 5951 5952 5953 5953 5954 5955 5956 5956 5957 5957 5958 5958 5959 5959 5959 5959 5959 5959 5959 5960 5961 5961 5962 5963 5963 5963 5963 5963 5963 5963 5962 5962 5962 5962 5962 5962 5962 5962 5962 5961 5961 5960 5961 5961 5960 5960 5959 5958 5958 5957 5956 5955 5954
5912 5913 5914 5917 5919 5918 5918 5919 5921 5922 5924 5926 5927 5929 5931 5933 5934 5935 5936 5936 5936 5937 5938 5940 5941 5943 5944 5945 5945 5946 5946 5946 5947 5949 5950 5951 5952 5953 5953 5954 5955 5955 5956 5956 5956 5957 5957 5957 5958 5958 5958 5958 5959 5960 5961 5961 5962 5962 5962 5961 5960 5959 5959 5959 5959 5958 5959 5959 5959 5959 5959 5959 5959 5958 5957 5957 5957 5956 5955 5954 5954 5954 5953 5952 5952
5908 5909 5911 5913 5914 5914 5914 5915 5917 5918 5919 5921 5922 5923 5925 5926 5929 5931 5932 5934 5935 5936 5936 5937 5938 5939 5941 5942 5943 5943 5943 5943 5944 5945 5946 5947 5948 5950 5951 5952 5952 5953 5953 5954 5954 5955 5955 5956 5956 5957 5957 5957 5958 5958 5959 5960 5960 5960 5959 5958 5957 5956 5956 5956 5956 5956 5956 5957 5957 5957 5956 5956 5956 5955 5954 5954 5954 5953 5952 5951 5951 5950 5950 5949 5949
5904 5905 5907 5909 5909 5909 5910 5911 5912 5913 5915 5917 5918 5918 5919 5920 5923 5925 5927 5930 5932 5933 5933 5934 5935 5936 5937 5938 5940 5940 5941 5940 5941 5942 5943 5944 5945 5947 5948 5948 5949 5950 5950 5951 5952 5952 5953 5954 5954 5955 5955 5955 5956 5957 5957 5957 5957 5956 5956 5955 5955 5954 5953 5953 5953 5953 5954 5955 5955 5955 5953 5953 5953 5952 5950 5950 5950 5949 5949 5949 5948 5948 5947 5947 5947
5902 5902 5903 5904 5905 5905 5906 5907 5909 5910 5911 5912 5914 5914 5914 5915 5917 5919 5922 5924 5926 5927 5928 5929 5931 5932 5933 5935 5937 5938 5938 5938 5938 5939 5940 5941 5942 5943 5944 5945 5946 5946 5947 5948 5949 5949 5950 5951 5951 5952 5952 5953 5953 5954 5954 5954 5953 5953 5953 5952 5952 5952 5951 5951 5951 5951 5952 5952 5952 5951 5951 5949 5949 5948 5947 5946 5946 5946 5946 5946 5946 5945 5946 5946 5945
5899 5899 5900 5900 5901 5902 5903 5904 5906 5907 5907 5908 5909 5909 5909 5910 5912 5914 5916 5918 5920 5922 5924 5925 5927 5928 5930 5932 5933 5934 5934 5934 5935 5936 5937 5938 5939 5940 5941 5941 5942 5943 5944 5944 5945 5946 5947 5948 5948 5949 5949 5949 5950 5950 5950 5950 5950 5950 5950 5949 5949 5949 5948 5948 5949 5949 5949 5948 5948 5948 5947 5946 5945 5944 5943 5942 5942 5942 5943 5943 5942 5942 5944 5944 5943
5895 5896 5896 5897 5899 5899 5900 5902 5903 5904 5904 5905 5905 5905 5905 5906 5907 5909 5911 5913 5916 5918 5919 5920 5922 5924 5926 5927 5928 5928 5928 5930 5932 5933 5934 5936 5937 5937 5938 5939 5939 5940 5940 5941 5942 5943 5944 5945 5945 5945 5945 5945 5946 5946 5947 5947 5947 5947 5947 5947 5947 5946 5946 5946 5947 5946 5945 5945 5945 5944 5943 5942 5941 5941 5940 5939 5939 5939 5939 5940 5939 5938 5940 5941 5941
5892 5893 5894 5895 5896 5896 5897 5899 5900 5901 5902 5902 5902 5902 5902 5902 5903 5905 5906 5908 5911 5913 5914 5915 5917 5920 5922 5923 5923 5923 5923 5926 5930 5931 5932 5933 5934 5935 5935 5936 5936 5937 5937 5938 5939 5940 5940 5941 5941 5941 5941 5941 5941 5942 5942 5943 5944 5944 5944 5944 5944 5943 5943 5943 5943 5942 5941 5941 5940 5939 5939 5939 5938 5938 5937 5936 5935 5935 5936 5936 5936 5936 5937 5938 5937
5888 5889 5891 5892 5893 5893 5894 5896 5897 5898 5899 5899 5898 5898 5898 5899 5900 5901 5902 5904 5906 5909 5910 5910 5913 5916 5917 5918 5919 5918 5919 5923 5927 5927 5928 5928 5929 5930 5931 5932 5933 5933 5934 5934 5935 5936 5937 5937 5938 5938 5937 5937 5937 5937 5938 5939 5940 5940 5940 5940 5940 5940 5939 5939 5938 5938 5937 5937 5936 5936 5935 5935 5935 5935 5934 5933 5932 5931 5932 5933 5933 5933 5934 5934 5934
5885 5885 5887 5889 5890 5891 5892 5892 5893 5894 5895 5896 5896 5896 5897 5899 5900 5900 5900 5901 5903 5905 5905 5906 5909 5912 5913 5914 5914 5914 5915 5919 5920 5921 5922 5922 5923 5925 5926 5927 5929 5929 5930 5931 5931 5932 5933 5933 5933 5933 5933 5933 5933 5933 5934 5935 5935 5936 5936 5936 5936 5936 5935 5935 5934 5934 5934 5934 5933 5932 5932 5931 5931 5931 5931 5930 5928 5927 5928 5928 5928 5928 5929 5930 5929
5882 5882 5883 5885 5887 5888 5889 5889 5890 5890 5891 5892 5893 5895 5897 5899 5899 5899 5899 5898 5899 5900 5901 5903 5905 5907 5908 5910 5910 5910 5911 5912 5914 5916 5918 5918 5919 5921 5922 5923 5924 5925 5926 5927 5927 5928 5929 5929 5929 5929 5929 5930 5930 5930 5930 5931 5931 5932 5932 5932 5932 5932 5931 5931 5930 5930 5931 5931 5930 5929 5928 5927 5926 5926 5925 5925 5924 5923 5923 5923 5924 5923 5924 5924 5924
5878 5879 5880 5881 5883 5885 5885 5886 5886 5887 5888 5888 5889 5892 5894 5895 5894 5895 5896 5896 5897 5898 5899 5900 5902 5903 5904 5905 5906 5906 5908 5909 5910 5912 5913 5914 5916 5917 5918 5919 5921 5921 5922 5923 5923 5924 5924 5924 5925 5926 5926 5926 5926 5926 5926 5927 5927 5928 5928 5928 5928 5928 5928 5928 5927 5927 5927 5927 5926 5926 5925 5924 5923 5922 5921 5920 5919 5919 5918 5918 5918 5919 5919 5919 5919
5875 5876 5877 5877 5879 5881 5882 5882 5883 5883 5884 5884 5885 5888 5890 5891 5891 5892 5893 5893 5894 5895 5897 5898 5900 5900 5900 5901 5902 5903 5904 5906 5907 5909 5909 5910 5912 5912 5913 5915 5916 5917 5917 5918 5918 5919 5919 5920 5921 5922 5922 5922 5923 5922 5922 5922 5923 5923 5923 5923 5923 5923 5923 5923 5924 5924 5924 5923 5922 5922 5921 5920 5920 5919 5917 5916 5915 5914 5914 5913 5913 5914 5914 5915 5915
5871 5873 5874 5874 5876 5877 5878 5879 5879 5880 5880 5881 5882 5883 5886 5887 5888 5889 5890 5890 5890 5891 5893 5894 5895 5896 5897 5898 5899 5899 5900 5901 5902 5903 5904 5905 5906 5908 5909 5910 5911 5912 5913 5913 5914 5914 5914 5915 5916 5917 5917 5917 5918 5918 5918 5918 5918 5918 5918 5918 5918 5918 5918 5918 5919 5919 5919 5919 5918 5918 5917 5916 5916 5915 5913 5912 5911 5910 5910 5909 5909 5909 5910 5911 5911
5867 5868 5870 5871 5872 5873 5875 5875 5876 5877 5877 5878 5878 5879 5881 5883 5885 5886 5887 5887 5887 5888 5889 5890 5891 5892 5893 5894 5895 5895 5896 5897 5897 5898 5899 5900 5902 5903 5904 5905 5906 5907 5908 5909 5909 5909 5910 5910 5911 5912 5912 5913 5913 5913 5913 5913 5913 5913 5913 5913 5913 5913 5913 5914 5914 5914 5914 5914 5914 5913 5913 5912 5911 5910 5909 5908 5907 5906 5906 5905 5905 5905 5905 5906 5906
5861 5863 5865 5866 5867 5868 5870 5871 5872 5873 5874 5874 5875 5876 5877 5879 5880 5882 5883 5884 5885 5885 5886 5887 5887 5888 5889 5891 5892 5892 5892 5893 5893 5894 5895 5896 5898 5899 5900 5901 5902 5903 5903 5904 5904 5905 5905 5906 5906 5907 5907 5908 5908 5908 5908 5908 5908 5908 5908 5908 5908 5908 5908 5909 5908 5908 5909 5909 5909 5909 5908 5908 5907 5906 5905 5904 5903 5902 5902 5901 5901 5901 5901 5901 5901
5856 5857 5859 5860 5862 5863 5864 5865 5867 5868 5869 5870 5871 5872 5873 5874 5875 5877 5878 5880 5881 5882 5882 5883 5884 5885 5886 5886 5887 5888 5889 5889 5890 5890 5891 5892 5893 5894 5895 5896 5897 5898 5899 5899 5900 5900 5901 5901 5902 5902 5903 5903 5903 5903 5903 5903 5903 5903 5903 5902 5902 5903 5903 5903 5903 5903 5903 5903 5903 5903 5903 5903 5903 5902 5901 5900 5899 5898 5898 5897 5897 5897 5896 5897 5897
5851 5852 5853 5854 5856 5857 5858 5859 5861 5862 5864 5865 5866 5867 5868 5869 5870 5871 5873 5874 5876 5877 5877 5878 5879 5880 5881 5881 5882 5882 5884 5885 5886 5886 5887 5887 5888 5889 5890 5891 5892 5893 5894 5895 5895 5896 5896 5897 5897 5898 5898 5898 5898 5899 5899 5898 5898 5898 5897 5897 5897 5897 5898 5898 5898 5898 5898 5898 5898 5898 5898 5898 5898 5897 5897 5896 5895 5894 5893 5893 5893 5892 5892 5892 5892
5845 5846 5848 5849 5850 5851 5852 5853 5855 5857 5858 5859 5860 5861 5863 5864 5865 5866 5867 5868 5870 5871 5872 5873 5873 5874 5875 5876 5876 5877 5878 5879 5881 5882 5882 5883 5883 5884 5885 5886 5887 5888 5889 5890 5890 5891 5891 5892 5892 5893 5893 5893 5893 5894 5893 5893 5893 5893 5892 5892 5892 5892 5892 5892 5892 5893 5893 5893 5893 5893 5893 5893 5893 5892 5892 5891 5891 5890 5889 5888 5888 5888 5888 5888 5888
5838 5839 5841 5842 5843 5845 5846 5848 5849 5851 5853 5854 5855 5856 5857 5858 5859 5860 5862 5863 5864 5865 5866 5867 5868 5869 5869 5870 5871 5871 5872 5874 5875 5876 5877 5877 5878 5878 5879 5880 5881 5882 5883 5884 5884 5885 5885 5886 5886 5887 5887 5888 5888 5888 5888 5888 5888 5887 5887 5887 5887 5887 5887 5887 5887 5887 5887 5887 5887 5887 5887 5887 5887 5887 5887 5886 5886 5885 5885 5884 5883 5883 5882 5883 5883
5831 5833 5834 5836 5837 5839 5840 5842 5844 5845 5847 5848 5850 5851 5852 5853 5854 5855 5856 5857 5858 5859 5860 5861 5862 5863 5864 5865 5865 5866 5867 5868 5869 5870 5871 5871 5871 5872 5873 5874 5874 5875 5876 5877 5878 5878 5879 5879 5880 5881 5881 5881 5882 5882 5882 5882 5882 5882 5882 5882 5881 5881 5881 5881 5881 5881 5881 5881 5881 5881 5881 5882 5882 5881 5881 5881 5881 5880 5880 5879 5879 5878 5877 5877 5878
5825 5826 5828 5829 5831 5832 5834 5835 5837 5839 5840 5842 5844 5845 5847 5848 5848 5849 5850 5850 5851 5852 5854 5855 5856 5857 5858 5859 5860 5861 5862 5862 5863 5863 5864 5865 5865 5866 5866 5867 5868 5868 5869 5870 5871 5872 5873 5873 5874 5874 5874 5875 5875 5876 5876 5876 5876 5876 5876 5876 5875 5875 5875 5875 5874 5874 5874 5874 5874 5874 5874 5875 5875 5876 5875 5875 5875 5874 5874 5874 5873 5873 5872 5872 5872
5818 5820 5821 5823 5824 5825 5826 5828 5829 5831 5833 5834 5836 5838 5839 5841 5842 5843 5844 5844 5845 5846 5847 5848 5849 5850 5852 5853 5854 5855 5855 5856 5857 5857 5858 5858 5858 5859 5859 5860 5860 5861 5862 5863 5864 5865 5866 5866 5867 5867 5868 5868 5869 5869 5870 5870 5870 5870 5870 5870 5870 5869 5869 5868 5868 5868 5867 5867 5867 5867 5867 5867 5868 5869 5869 5869 5869 5868 5868 5868 5867 5867 5867 5867 5867
5810 5812 5814 5815 5816 5817 5819 5820 5821 5823 5825 5827 5828 5830 5831 5833 5834 5836 5837 5838 5838 5839 5840 5841 5842 5843 5845 5846 5847 5848 5849 5849 5850 5851 5852 5852 5852 5852 5852 5853 5853 5854 5855 5856 5856 5857 5858 5859 5860 5861 5861 5862 5862 5862 5863 5863 5863 5863 5863 5863 5863 5863 5863 5862 5862 5861 5861 5861 5861 5860 5860 5860 5860 5861 5861 5862 5862 5862 5862 5862 5861 5861 5861 5861 5861
5803 5804 5806 5807 5808 5810 5811 5812 5814 5816 5817 5819 5821 5822 5824 5825 5827 5828 5829 5830 5831 5832 5833 5834 5835 5837 5838 5839 5840 5841 5842 5842 5842 5843 5844 5845 5845 5846 5846 5846 5847 5847 5848 5849 5849 5850 5851 5851 5853 5854 5854 5855 5855 5855 5856 5856 5856 5856 5856 5856 5856 5856 5856 5856 5855 5855 5855 5855 5854 5854 5854 5854 5853 5853 5854 5854 5854 5855 5855 5855 5855 5854 5854 5854 5854
5795 5796 5798 5799 5800 5802 5803 5804 5806 5808 5809 5811 5812 5814 5816 5818 5819 5820 5821 5823 5824 5825 5826 5827 5828 5830 5831 5832 5833 5834 5834 5835 5836 5836 5837 5838 5838 5839 5839 5839 5840 5840 5841 5842 5842 5843 5843 5844 5845 5846 5847 5847 5848 5848 5848 5848 5848 5849 5849 5849 5849 5849 5849 5849 5849 5848 5848 5848 5848 5848 5847 5847 5847 5846 5846 5847 5847 5847 5847 5848 5848 5848 5847 5847 5847
5787 5788 5790 5791 5793 5794 5795 5796 5798 5800 5801 5802 5804 5806 5807 5809 5810 5812 5814 5815 5817 5818 5819 5819 5820 5822 5823 5824 5826 5826 5827 5827 5828 5829 5829 5830 5830 5831 5831 5831 5832 5833 5833 5834 5834 5835 5836 5837 5838 5838 5839 5839 5840 5840 5841 5841 5841 5841 5841 5841 5841 5841 5841 5841 5841 5841 5841 5840 5840 5840 5840 5840 5840 5839 5839 5839 5839 5839 5839 5840 5840 5840 5840 5839 5839
5779 5780 5782 5784 5785 5786 5787 5789 5790 5791 5793 5794 5796 5797 5799 5801 5802 5803 5805 5806 5808 5809 5811 5812 5813 5813 5815 5816 5818 5818 5819 5819 5820 5820 5821 5821 5822 5823 5823 5823 5824 5824 5825 5825 5826 5827 5828 5829 5830 5830 5831 5831 5831 5831 5831 5832 5832 5832 5832 5832 5832 5832 5832 5832 5832 5832 5833 5833 5833 5833 5832 5832 5832 5832 5831 5832 5832 5832 5831 5831 5831 5832 5832 5832 5831
5771 5773 5775 5776 5777 5778 5780 5781 5783 5784 5785 5786 5788 5789 5791 5792 5794 5795 5796 5797 5798 5799 5801 5802 5804 5805 5807 5808 5809 5810 5810 5811 5812 5812 5812 5812 5813 5814 5815 5815 5815 5815 5816 5816 5817 5817 5818 5819 5821 5821 5822 5822 5823 5822 5822 5822 5822 5822 5822 5823 5823 5823 5823 5823 5823 5824 5824 5824 5824 5825 5824 5824 5824 5823 5823 5823 5823 5823 5824 5823 5823 5822 5823 5823 5823
5764 5766 5767 5769 5770 5771 5772 5773 5775 5776 5778 5779 5780 5782 5783 5784 5786 5787 5788 5789 5790 5791 5792 5793 5794 5795 5797 5799 5800 5801 5802 5803 5803 5803 5803 5804 5804 5805 5806 5806 5806 5806 5807 5807 5807 5808 5809 5810 5811 5812 5812 5813 5813 5813 5813 5813 5813 5813 5813 5813 5813 5813 5813 5813 5814 5814 5814 5815 5815 5815 5815 5815 5815 5815 5814 5814 5814 5814 5814 5815 5815 5814 5814 5814 5813
5757 5759 5760 5761 5763 5764 5765 5766 5767 5768 5770 5771 5773 5774 5775 5776 5777 5778 5779 5780 5781 5782 5783 5784 5785 5786 5787 5789 5790 5791 5792 5793 5793 5794 5794 5795 5795 5796 5796 5797 5797 5797 5798 5798 5798 5798 5799 5800 5801 5802 5802 5802 5802 5802 5802 5802 5802 5802 5803 5803 5803 5803 5803 5803 5803 5803 5804 5804 5805 5805 5805 5805 5805 5805 5805 5805 5804 5804 5805 5805 5805 5805 5805 5804 5804
5750 5751 5753 5754 5755 5756 5757 5759 5759 5761 5762 5764 5765 5766 5767 5768 5769 5770 5771 5772 5773 5774 5775 5776 5777 5777 5778 5779 5780 5781 5781 5782 5783 5784 5785 5785 5785 5786 5786 5787 5787 5788 5788 5789 5789 5789 5789 5790 5791 5792 5792 5792 5792 5791 5791 5791 5791 5791 5791 5791 5792 5792 5792 5792 5793 5793 5793 5794 5794 5794 5794 5795 5795 5795 5795 5795 5795 5795 5795 5795 5795 5794 5794 5795 5795
5741 5743 5745 5746 5747 5748 5750 5751 5752 5753 5754 5756 5757 5758 5759 5760 5761 5762 5763 5763 5764 5765 5766 5767 5768 5768 5769 5770 5771 5771 5770 5771 5773 5774 5775 5775 5775 5776 5776 5776 5777 5777 5778 5778 5779 5779 5779 5780 5781 5781 5781 5781 5781 5781 5781 5781 5781 5780 5780 5780 5780 5780 5780 5781 5781 5781 5782 5782 5783 5783 5783 5784 5784 5785 5785 5784 5784 5784 5784 5784 5784 5784 5784 5784 5784
5732 5734 5736 5738 5739 5740 5741 5743 5744 5745 5747 5748 5749 5750 5751 5752 5753 5754 5754 5755 5756 5756 5757 5758 5759 5759 5760 5761 5762 5762 5761 5761 5762 5763 5764 5765 5765 5765 5766 5766 5767 5767 5767 5767 5768 5768 5769 5770 5770 5771 5771 5771 5770 5770 5770 5769 5769 5769 5769 5769 5768 5768 5768 5768 5769 5769 5769 5770 5771 5772 5772 5772 5773 5773 5773 5773 5773 5773 5773 5773 5773 5772 5773 5773 5773
5724 5726 5727 5729 5730 5732 5733 5735 5736 5737 5739 5740 5741 5741 5742 5743 5744 5745 5745 5746 5747 5747 5748 5749 5749 5750 5751 5752 5753 5753 5753 5753 5753 5753 5754 5754 5755 5755 5755 5756 5756 5757 5757 5757 5757 5758 5758 5758 5759 5760 5760 5760 5760 5759 5759 5758 5758 5758 5758 5758 5757 5756 5756 5756 5756 5756 5757 5757 5758 5759 5760 5760 5761 5761 5761 5761 5761 5761 5761 5761 5761 5761 5761 5761 5761
5715 5716 5718 5720 5722 5723 5724 5726 5727 5729 5730 5731 5732 5732 5733 5734 5735 5736 5737 5737 5738 5738 5739 5739 5740 5741 5741 5742 5743 5743 5744 5744 5744 5744 5744 5745 5745 5745 5745 5746 5746 5746 5746 5746 5747 5747 5747 5747 5748 5748 5748 5749 5748 5748 5748 5748 5747 5747 5747 5746 5745 5745 5744 5744 5744 5743 5743 5744 5745 5746 5747 5748 5748 5749 5749 5749 5749 5749 5749 5749 5748 5748 5748 5748 5749
5706 5707 5709 5711 5712 5714 5715 5717 5718 5720 5721 5722 5723 5724 5725 5725 5726 5727 5728 5728 5729 5729 5730 5730 5731 5731 5732 5733 5733 5734 5734 5735 5735 5735 5735 5735 5736 5736 5736 5736 5736 5736 5736 5736 5736 5736 5736 5736 5736 5736 5737 5737 5737 5737 5737 5737 5736 5736 5736 5735 5734 5733 5733 5732 5732 5731 5730 5730 5731 5732 5733 5734 5735 5736 5736 5736 5736 5736 5736 5736 5735 5735 5735 5735 5735
5697 5699 5700 5702 5703 5705 5706 5708 5709 5711 5712 5713 5714 5715 5715 5716 5717 5718 5718 5719 5720 5720 5721 5721 5722 5722 5723 5723 5724 5724 5725 5725 5725 5726 5726 5726 5727 5727 5727 5727 5726 5726 5726 5725 5725 5725 5725 5724 5724 5725 5725 5725 5725 5725 5725 5725 5725 5725 5724 5723 5722 5722 5721 5720 5719 5718 5718 5717 5718 5718 5719 5720 5722 5722 5722 5723 5723 5722 5723 5722 5722 5721 5721 5722 5722
5689 5691 5692 5693 5695 5696 5698 5699 5700 5701 5702 5703 5704 5705 5706 5707 5708 5709 5709 5710 5711 5711 5712 5713 5713 5714 5714 5714 5715 5715 5715 5715 5716 5716 5716 5717 5717 5717 5717 5717 5717 5716 5716 5715 5715 5714 5714 5714 5713 5713 5713 5713 5713 5713 5713 5713 5713 5712 5712 5712 5711 5710 5709 5707 5706 5705 5705 5704 5705 5705 5706 5707 5708 5708 5708 5708 5708 5708 5708 5708 5708 5707 5707 5708 5709
5682 5683 5684 5685 5686 5688 5689 5690 5691 5692 5693 5694 5695 5696 5697 5698 5699 5700 5701 5701 5702 5703 5704 5704 5705 5705 5706 5706 5706 5706 5706 5706 5707 5707 5707 5707 5707 5707 5707 5707 5707 5706 5706 5705 5704 5704 5703 5703 5703 5702 5702 5702 5702 5702 5701 5701 5701 5700 5700 5700 5699 5698 5696 5695 5694 5693 5691 5691 5692 5693 5693 5693 5694 5694 5694 5694 5694 5694 5694 5694 5693 5692 5693 5694 5694
5675 5676 5677 5678 5679 5680 5681 5682 5683 5683 5685 5686 5687 5688 5689 5690 5691 5692 5693 5693 5694 5695 5695 5696 5696 5697 5697 5697 5697 5697 5697 5697 5697 5697 5698 5698 5698 5698 5697 5697 5696 5696 5696 5695 5694 5694 5693 5692 5692 5692 5691 5691 5691 5690 5690 5689 5689 5688 5688 5687 5686 5685 5684 5682 5681 5680 5678 5678 5679 5681 5681 5680 5680 5680 5680 5680 5680 5680 5680 5680 5679 5679 5678 5679 5679